Location: ?????
(30.2541°N, 31.0910°E)
Time: 02:54:21
(UTC+00:00)

ALOS - Pass Details

Date: 27 September 2022
Orbit: 680 x 683 km, 98.0° (Epoch: 01 December)

Event Time Altitude Azimuth Distance (km) Brightness Sun altitude
Rises 02:03:49 0° 353° (N) 3,050 5.7 -22.9°
Reaches altitude 10° 02:06:30 10° 338° (NNW) 2,131 4.7 -22.3°
Enters shadow 02:07:01 12° 334° (NNW) 1,980 4.5 -22.2°
